Wind_Speed
59 59 59 58 57 57 57 57 58 58 58 58 56 54 52 50 50 49 48 49 51 54 53 51 49 48 44 40 45 52 57 57 56 56 54 52 51 49 47 49 49 44 42 41 40 39 37 37 37 37 37 37 37 36 35 34 34 33 33 32 30 29 28 27 26 24 22 21 20 19 18 17 17 16 16 15 14 13 13 13 12 10 8 8 7 7 7 8
61 60 61 60 59 59 58 58 58 58 59 58 56 54 51 49 50 48 48 49 50 53 54 51 49 49 45 40 42 49 57 57 57 57 53 53 53 50 47 47 49 46 43 41 40 39 38 37 37 37 37 37 37 36 36 35 34 34 33 32 31 30 29 27 26 24 23 22 20 19 18 17 17 16 15 15 14 13 12 12 12 11 9 8 8 8 8 8
62 61 62 61 60 60 59 58 59 59 59 58 56 54 51 49 49 48 48 49 49 52 54 52 50 49 44 39 40 46 53 56 59 57 53 54 52 49 47 47 50 47 44 43 41 41 40 39 38 38 38 37 37 37 36 36 35 34 33 33 32 30 28 28 26 25 24 23 21 20 19 18 17 16 16 15 14 13 12 12 12 12 10 9 9 8 8 9
62 63 63 62 61 60 59 59 59 59 59 57 55 53 50 49 48 47 47 48 49 51 53 52 51 49 44 40 41 45 51 56 58 55 54 55 52 49 48 48 51 48 46 44 43 43 42 42 41 41 40 39 38 37 37 36 36 35 35 34 31 30 30 29 27 26 25 24 23 21 20 19 18 17 16 15 15 14 13 13 13 13 12 11 11 10 9 9
63 64 63 63 62 60 60 59 59 59 58 57 55 53 50 48 48 46 47 48 48 49 52 53 51 51 45 42 45 47 52 56 57 55 56 57 53 52 50 50 51 49 47 45 45 44 43 43 43 43 42 41 40 39 39 38 36 36 35 32 31 31 30 29 28 27 26 25 23 22 20 19 19 18 17 17 16 15 15 14 14 15 14 14 13 12 12 10
64 65 64 63 62 60 60 59 60 59 58 56 54 52 49 47 47 45 46 47 47 47 50 51 51 52 46 44 47 48 51 55 54 55 57 57 56 53 50 52 52 50 49 47 46 46 45 44 44 44 43 42 41 40 39 38 37 36 34 32 32 32 31 30 29 28 26 25 24 22 21 20 20 19 18 18 17 16 16 15 14 14 14 14 13 12 12 11
65 65 64 63 62 61 61 60 60 59 57 56 54 52 48 47 46 44 45 45 45 44 46 48 50 53 50 45 46 48 51 52 51 54 56 56 56 54 51 54 54 52 50 48 48 47 45 45 45 44 42 42 41 40 38 38 38 37 35 34 34 33 31 31 30 29 27 26 25 23 22 21 20 19 19 18 18 17 16 15 14 14 13 12 12 11 11 11
66 65 64 63 62 61 61 60 60 59 57 55 53 51 48 46 45 44 44 44 44 43 45 49 52 54 53 47 45 48 50 49 50 54 55 55 56 55 53 55 56 53 51 49 48 47 46 45 45 44 42 41 41 40 39 39 39 37 36 35 34 33 32 32 30 29 28 27 25 24 23 21 21 20 19 19 18 18 17 16 15 14 13 12 12 10 10 9
66 65 65 63 62 62 61 60 59 58 56 55 53 50 47 46 45 43 43 44 43 42 44 50 53 52 52 50 46 47 50 49 51 54 54 54 55 56 55 57 57 53 50 49 48 48 47 45 45 44 43 42 41 40 39 39 39 38 36 35 34 33 33 32 31 30 29 27 26 24 23 22 21 21 20 20 19 18 17 16 15 14 13 12 11 11 10 9
66 65 64 64 63 62 61 61 60 58 57 55 52 49 47 46 44 43 43 43 42 42 44 48 51 51 51 51 47 46 48 51 53 54 53 53 54 55 56 59 58 52 50 49 49 48 47 46 45 45 43 42 41 41 41 40 40 38 37 36 35 34 33 33 32 31 29 28 26 25 24 23 22 21 21 20 19 18 17 16 15 14 13 12 11 10 10 9
66 65 64 64 63 62 62 61 59 58 56 54 51 49 47 45 44 44 43 42 42 42 44 46 48 50 51 52 50 47 48 51 53 54 54 53 54 55 56 61 58 52 49 48 48 48 47 47 47 46 44 43 42 42 42 42 40 39 38 37 36 35 34 34 33 32 30 28 27 26 25 23 23 22 21 20 19 18 18 17 16 15 14 13 11 10 10 9
67 65 64 64 63 63 62 60 59 58 55 52 50 48 47 46 44 44 43 43 43 42 43 44 46 47 50 52 51 49 48 50 52 53 54 54 55 56 56 61 59 52 50 49 49 48 48 48 48 48 47 46 45 44 44 43 41 40 39 38 37 36 35 35 34 32 31 29 28 27 25 24 24 23 22 21 20 19 18 17 16 15 14 13 12 11 11 10
67 65 64 64 63 63 62 61 59 57 54 52 50 48 47 46 45 45 44 43 43 43 42 44 46 46 48 51 51 50 48 48 51 52 53 54 56 57 57 61 59 53 51 51 51 50 50 50 50 50 50 48 47 46 45 44 42 42 41 40 39 38 37 36 34 32 31 30 29 27 26 26 26 25 23 22 21 19 18 17 16 15 15 14 13 13 12 11
67 65 64 64 64 64 63 62 59 57 54 52 50 48 48 47 46 46 45 44 43 43 43 45 46 46 47 49 50 51 48 46 49 52 52 52 54 57 59 62 59 54 52 52 52 52 52 52 51 51 50 49 48 46 45 44 44 43 42 41 40 40 38 36 34 33 31 30 29 28 28 28 27 25 25 23 21 20 18 18 17 16 15 15 14 14 13 12
67 65 64 65 65 64 64 62 60 57 54 52 50 49 48 48 47 46 45 44 43 43 43 45 46 45 46 47 50 51 48 46 47 51 53 51 52 56 60 63 59 55 53 53 54 54 53 53 52 52 51 50 49 48 46 46 46 44 43 43 41 40 38 36 35 33 32 30 30 29 28 28 26 26 25 23 21 20 19 18 17 16 15 15 14 14 13 12
67 65 65 65 65 64 62 60 59 56 54 52 50 49 49 49 48 47 46 45 43 43 44 45 45 44 45 47 49 50 47 46 46 48 53 53 51 55 61 64 59 55 55 55 55 55 54 54 54 53 52 51 51 50 48 48 48 46 45 44 41 39 38 36 35 33 32 31 31 30 29 27 26 26 24 23 22 20 19 18 17 16 15 15 14 14 14 12
66 65 66 65 65 63 61 59 57 55 53 51 50 51 50 50 49 48 47 45 44 44 44 43 43 43 45 46 48 48 46 46 46 46 52 56 54 56 62 65 60 55 56 57 57 56 56 55 55 53 52 52 51 51 50 50 50 48 47 45 42 39 37 36 35 33 32 32 31 30 29 27 26 26 25 24 22 21 20 19 17 17 16 16 16 15 15 13
66 65 66 65 64 62 60 58 56 55 53 52 52 53 52 51 50 49 48 48 47 46 45 44 43 43 44 45 46 46 45 46 47 47 51 57 58 57 62 66 62 57 57 58 58 58 57 56 56 55 54 54 53 53 52 51 50 48 47 43 40 39 37 36 34 33 32 32 31 30 29 28 27 27 25 24 23 21 20 19 18 18 17 17 17 16 15 14
65 65 65 64 63 61 59 57 56 54 54 54 54 54 54 53 52 51 51 50 48 46 44 42 40 40 40 42 44 44 45 46 47 47 52 58 59 58 62 66 62 58 58 59 59 59 59 58 58 57 56 55 54 52 52 50 47 45 42 38 37 37 37 36 35 34 34 34 32 31 30 29 28 27 26 25 23 22 21 20 19 18 18 18 18 17 16 16
65 64 65 64 63 60 58 56 55 54 54 54 54 54 54 53 53 53 51 48 45 43 41 38 37 37 37 40 44 46 47 48 47 47 53 59 59 59 63 65 63 61 60 59 59 59 59 59 59 57 56 55 53 53 52 49 45 42 40 39 39 39 39 39 38 38 38 36 34 32 31 30 29 27 27 25 24 23 22 21 20 20 19 19 19 18 18 18
65 64 65 64 62 60 57 55 54 54 54 52 52 51 50 48 47 45 43 42 42 41 40 38 36 36 37 39 43 44 46 47 47 48 54 60 60 60 63 65 65 63 61 60 60 59 59 60 58 55 55 54 53 52 50 46 42 41 41 42 41 42 43 42 40 40 38 36 35 33 31 30 29 28 27 25 24 23 23 22 21 21 21 20 20 20 20 20
65 64 65 64 61 59 56 54 54 53 53 52 51 50 47 46 43 40 40 41 41 42 42 40 38 36 36 39 41 42 43 45 47 50 56 61 62 61 63 65 65 63 63 63 61 60 60 59 57 56 55 53 51 49 47 44 43 43 44 44 44 45 44 42 41 40 38 37 35 33 32 30 30 29 28 26 24 24 23 22 22 22 22 22 22 22 22 22
64 64 65 63 61 58 56 54 53 52 51 50 50 49 47 46 44 44 44 43 44 46 45 43 41 38 38 41 42 42 42 44 46 50 56 61 63 62 63 64 64 64 64 63 62 62 61 60 59 58 54 51 49 49 47 46 45 45 45 45 46 45 43 42 41 39 38 38 35 34 33 32 32 31 29 27 25 25 24 23 23 23 22 23 23 23 23 24
64 64 65 63 60 58 55 54 53 52 51 49 49 48 47 46 46 48 48 46 46 46 46 45 43 41 41 42 42 42 43 45 47 50 56 61 62 61 61 63 64 64 63 62 61 61 61 60 59 56 52 51 50 49 48 47 46 46 46 46 46 44 43 43 41 39 40 39 37 36 35 34 33 32 31 28 26 26 25 25 24 24 24 24 23 23 24 25
63 64 64 62 59 56 54 54 52 52 51 50 50 48 48 48 48 49 48 47 47 46 45 44 44 43 43 44 43 43 44 46 48 51 55 58 60 59 60 62 63 62 61 60 60 60 60 58 55 52 51 51 51 50 48 47 48 47 47 47 46 44 44 44 42 41 41 40 38 37 36 35 34 34 32 29 27 27 26 26 25 24 24 24 23 24 25 25
62 63 63 61 58 55 54 53 52 52 52 51 50 49 49 50 50 50 49 49 49 48 46 45 45 45 45 45 45 45 47 49 50 52 54 55 56 57 58 59 60 59 58 58 59 60 59 56 53 52 52 51 50 50 49 48 48 48 48 47 46 45 45 44 42 42 42 41 39 38 38 37 36 35 33 30 29 28 27 26 25 25 25 25 24 24 25 26
61 62 63 61 57 55 54 52 51 51 51 51 51 50 50 50 51 52 52 52 52 50 48 47 46 46 45 45 46 48 50 51 52 54 54 54 53 54 55 56 58 57 56 57 58 59 56 54 54 54 53 52 51 50 49 48 49 49 48 47 46 46 46 44 43 43 43 42 40 39 40 40 38 36 33 31 30 28 27 26 25 25 25 25 25 25 25 26
61 62 62 60 56 54 53 51 50 50 51 51 51 51 51 51 53 54 54 55 54 51 49 48 47 47 46 46 46 49 51 51 53 56 55 55 54 53 55 56 55 54 53 54 56 56 54 53 54 54 53 52 51 50 48 47 49 49 47 45 45 46 46 45 45 44 44 43 43 42 41 41 40 36 33 32 31 29 27 26 25 25 25 25 25 25 26 26
61 62 62 60 57 54 53 50 49 50 52 52 52 53 52 53 54 55 56 57 55 52 51 49 49 49 48 47 47 49 51 51 53 55 55 55 55 54 55 56 54 52 50 51 53 53 52 52 52 52 52 52 51 48 46 46 47 47 46 45 46 47 46 46 46 45 45 45 45 44 42 42 41 37 34 33 32 30 28 27 26 26 25 25 25 26 26 27
62 62 62 60 57 54 52 51 51 52 53 53 54 54 53 55 56 57 59 59 56 53 52 51 50 50 49 48 49 50 51 52 52 53 54 54 55 55 56 55 53 52 51 51 52 51 49 49 50 50 51 51 50 48 46 47 48 47 46 46 47 48 48 48 47 46 47 48 48 45 43 42 41 39 36 34 32 30 29 28 27 27 26 25 25 26 26 27
63 63 62 60 56 52 51 52 53 53 53 53 54 55 55 57 57 59 60 58 55 54 53 52 51 51 50 49 50 51 52 52 52 54 54 53 55 56 56 56 55 54 53 54 53 51 50 49 50 50 50 50 49 49 49 49 50 50 49 48 48 49 49 49 49 48 49 50 49 46 43 43 43 41 37 33 32 31 30 29 28 27 27 26 26 26 26 27
64 63 63 61 55 51 51 52 53 54 54 54 54 55 57 58 60 61 60 58 56 55 52 50 51 52 51 50 50 51 52 52 53 55 55 54 54 56 56 56 57 56 57 57 56 54 52 51 51 51 51 51 50 51 51 52 53 51 51 50 49 50 50 51 51 50 51 51 49 45 43 43 43 40 37 34 33 33 31 29 28 27 27 27 26 26 27 27
64 63 63 61 56 52 51 52 52 54 54 55 55 56 57 60 62 60 59 59 57 53 49 47 49 52 52 52 52 51 51 52 52 54 55 55 54 54 55 56 56 56 57 57 57 55 55 55 54 53 53 53 52 52 52 53 53 52 51 50 49 51 51 50 51 50 50 50 48 45 43 43 43 41 38 36 34 33 31 30 29 28 28 27 27 27 28 28
64 63 61 60 57 54 53 52 53 53 54 55 56 57 59 60 60 59 60 60 55 52 50 48 50 54 54 54 54 53 52 52 52 53 54 55 55 55 55 55 54 54 55 54 53 53 53 54 55 54 54 53 53 53 52 51 50 49 49 48 48 49 48 47 48 48 48 48 46 45 44 44 44 42 39 36 34 33 32 31 30 29 28 28 28 28 29 29
64 63 61 58 56 55 54 53 52 53 54 55 56 58 59 58 58 59 59 57 54 53 52 50 51 56 57 55 54 54 53 53 53 53 53 54 55 56 56 55 55 55 55 53 52 51 50 51 51 51 51 51 51 51 50 49 49 49 48 48 48 48 47 47 47 47 46 46 46 46 45 45 44 42 40 37 36 34 33 31 30 29 29 29 30 30 29 30
64 64 62 58 56 55 55 54 52 53 54 55 57 58 56 55 58 59 57 54 54 54 53 53 53 56 57 56 56 55 54 52 51 52 53 53 53 54 53 53 54 54 54 54 53 52 51 51 50 49 49 50 50 50 49 49 50 50 49 49 48 48 47 46 46 46 45 46 48 47 45 44 44 44 42 38 36 35 33 32 31 30 30 30 31 30 30 31
64 64 62 59 57 56 54 53 52 53 53 54 56 54 52 54 58 59 57 56 56 55 54 55 54 55 56 56 56 56 55 54 53 52 53 53 54 53 52 52 52 51 51 51 51 51 50 50 50 49 50 49 49 49 49 49 49 49 49 48 46 46 45 44 45 46 46 47 49 48 45 44 44 45 42 39 36 35 34 34 33 32 31 31 31 31 31 32
64 64 63 60 59 57 55 53 53 52 53 54 54 52 52 55 57 58 57 57 58 57 56 55 53 52 54 55 56 56 56 56 56 55 54 55 55 54 53 52 50 50 50 49 49 48 48 48 48 48 49 49 49 49 49 49 49 49 48 46 45 45 45 46 47 48 47 47 49 48 45 44 44 43 41 38 36 36 35 35 34 32 31 32 32 32 32 32
67 66 65 62 60 58 56 54 53 52 52 53 53 53 54 54 55 56 57 58 58 57 57 55 52 50 50 52 55 56 57 57 57 57 56 56 56 55 54 53 51 51 51 50 49 48 48 48 48 48 48 48 49 50 50 49 49 49 48 46 46 45 46 46 47 47 47 47 47 47 46 45 43 41 40 38 37 37 36 35 34 33 33 32 32 33 33 33
68 68 65 64 62 60 58 55 54 54 53 53 52 53 54 53 54 56 57 58 57 57 56 54 53 51 50 50 52 54 57 57 58 58 57 56 56 55 54 53 53 52 51 51 51 50 49 49 49 48 48 49 49 49 49 49 48 47 47 46 46 46 46 46 46 45 45 45 46 48 47 46 43 40 39 39 38 37 36 35 35 34 34 34 34 34 34 35
68 68 66 66 65 62 60 58 57 55 54 52 53 53 53 53 54 55 56 57 57 57 56 54 53 52 51 51 51 52 55 57 58 58 58 57 56 54 53 53 53 53 52 53 53 53 52 51 51 50 50 49 49 48 47 47 47 46 45 44 44 43 44 45 45 45 45 45 47 48 48 46 43 39 38 39 38 38 37 36 36 36 36 36 36 36 36 36
68 68 67 66 66 64 62 60 58 57 56 55 54 53 53 53 54 55 55 56 56 56 55 54 53 52 52 52 50 50 52 54 57 59 59 58 56 54 52 52 53 52 53 53 52 52 52 52 53 52 51 50 49 48 47 46 46 46 46 45 43 43 43 43 45 45 44 45 45 45 46 46 42 38 38 38 38 37 37 37 37 37 37 37 37 38 38 38
69 68 67 66 66 65 64 63 61 60 59 57 55 53 53 53 53 54 55 55 55 55 54 54 54 54 54 53 51 50 51 51 53 55 57 58 58 57 54 53 53 53 53 53 52 52 51 52 52 52 52 51 50 49 48 48 47 46 47 46 45 45 46 46 47 47 46 46 44 45 47 47 42 38 39 39 38 38 38 38 38 38 38 38 39 39 39 39
70 68 67 67 67 66 66 65 63 62 60 59 57 55 54 53 53 53 54 55 56 55 54 54 54 54 54 53 52 50 50 50 50 51 52 54 56 57 57 56 55 55 55 55 54 53 52 53 53 53 53 53 53 52 51 51 50 49 49 49 49 49 48 48 48 48 48 47 45 47 50 48 42 40 41 41 40 40 40 40 40 39 39 40 40 40 40 40
71 70 69 68 68 67 67 66 64 62 61 60 59 58 56 55 55 54 53 54 55 55 54 53 54 54 53 52 51 50 50 51 51 50 50 50 51 53 55 56 57 57 56 55 54 52 52 53 54 54 55 56 56 56 55 53 52 52 51 50 50 49 48 47 46 47 48 47 47 48 49 47 44 43 44 44 42 42 42 42 42 42 42 41 41 42 42 43
72 72 71 70 70 69 68 66 65 64 63 62 61 60 59 57 56 55 54 53 54 54 53 52 52 53 52 51 50 49 49 51 52 52 51 50 49 49 49 52 56 59 58 57 55 53 52 54 55 54 55 56 55 54 52 50 50 50 49 48 48 47 46 46 47 49 48 48 49 49 47 47 47 47 47 46 43 43 44 44 45 45 45 45 45 46 46 46
72 73 73 73 72 71 70 68 67 66 63 62 62 61 60 59 58 57 56 55 54 54 54 52 52 52 53 52 51 50 49 50 51 52 52 52 51 50 48 48 51 57 60 59 57 56 55 57 58 57 56 56 56 54 52 50 49 48 47 46 46 45 45 46 47 47 46 47 51 49 46 48 50 49 48 47 45 45 46 46 47 47 47 48 48 48 48 47
71 73 73 73 71 70 68 67 66 64 63 63 63 63 62 62 60 59 58 56 55 55 55 54 53 52 52 52 51 50 50 50 51 52 52 52 52 51 50 48 47 51 58 61 60 58 58 60 60 59 59 58 57 57 56 54 53 51 50 49 47 46 46 46 46 45 45 48 52 50 48 50 52 50 49 49 49 48 47 47 48 48 48 48 48 48 48 47
65 70 72 72 70 68 65 64 64 64 64 64 64 64 64 63 62 61 59 58 57 56 55 55 54 53 52 51 50 50 50 50 51 52 51 51 52 52 51 51 48 47 51 59 63 62 61 62 62 60 59 59 58 58 57 56 56 55 54 53 52 50 50 50 50 50 51 54 55 53 53 54 52 50 49 49 49 49 49 48 48 48 48 48 48 48 48 48
60 67 70 70 69 68 67 66 66 66 65 65 64 64 63 64 64 64 62 60 58 57 55 55 54 53 52 51 51 51 50 49 49 49 48 49 50 50 50 51 50 49 48 52 61 66 64 63 63 62 60 60 59 58 58 58 57 57 56 55 54 53 53 55 56 56 56 58 57 55 56 56 52 48 48 47 47 49 50 49 48 49 49 49 49 50 50 50
56 61 66 69 69 68 69 69 68 67 67 65 64 63 62 63 64 65 65 63 60 58 56 55 54 53 53 51 51 50 49 48 48 47 46 46 46 46 48 48 48 49 49 48 53 61 66 66 64 61 61 62 61 59 59 59 58 59 59 58 57 57 57 58 59 57 56 56 54 54 55 55 51 47 46 47 47 48 50 50 50 51 52 52 52 53 54 54
53 55 59 65 68 68 68 69 69 69 67 65 64 63 62 62 62 63 65 65 63 60 58 57 56 55 54 53 51 50 49 49 49 48 48 48 48 47 48 49 48 48 49 48 48 52 58 64 65 64 63 63 62 61 60 60 61 62 62 60 59 60 60 59 58 56 54 53 53 53 54 52 50 49 48 49 49 50 52 53 54 54 55 56 56 57 57 57
Wind_Direction
194 195 194 195 196 197 198 200 203 205 207 207 206 209 211 210 213 214 214 213 210 210 211 213 212 212 213 209 208 206 202 201 197 196 199 203 204 202 202 200 195 191 189 188 189 190 191 190 189 187 186 184 182 181 181 182 183 182 182 181 179 179 179 179 178 176 175 176 176 174 171 167 164 162 162 163 162 159 154 150 146 145 142 133 125 116 110 106
193 193 194 194 194 195 196 199 202 205 206 206 205 208 210 209 212 213 214 214 211 210 211 213 212 212 213 209 208 208 202 198 197 197 198 202 204 203 204 200 193 189 188 189 190 190 190 190 189 187 186 185 183 182 182 183 184 184 184 183 182 180 178 179 178 175 176 176 176 174 172 168 166 164 164 165 165 164 160 155 149 147 146 139 131 122 116 110
192 192 193 194 193 194 195 198 202 204 205 205 204 207 208 208 211 212 213 214 212 211 212 213 212 211 212 207 207 206 200 196 197 196 196 202 203 202 204 198 191 188 188 189 190 191 190 189 188 187 186 185 184 184 184 184 184 185 186 187 184 179 177 180 178 176 177 176 176 174 171 168 165 165 165 165 165 166 164 158 150 148 149 145 136 129 121 116
192 192 193 194 193 194 195 198 201 204 205 204 204 206 207 207 210 211 212 214 213 212 213 214 212 211 210 205 203 201 195 194 195 195 196 202 202 202 202 194 189 189 189 190 191 192 191 188 187 187 186 185 185 185 185 185 185 186 188 187 182 179 180 180 178 178 178 177 176 174 170 166 164 164 163 163 163 163 162 159 152 149 150 147 141 136 130 123
191 192 194 194 194 194 194 197 201 203 204 203 203 205 207 207 208 210 211 214 214 213 214 214 212 212 209 205 204 199 194 193 193 194 197 200 201 202 199 191 190 191 191 191 192 193 191 190 187 186 186 185 185 185 185 186 186 188 189 185 182 182 181 180 179 179 179 178 176 173 169 165 163 161 160 159 159 160 161 159 154 149 149 148 144 139 135 132
192 192 194 194 193 194 194 196 199 202 202 202 202 205 206 206 207 208 210 213 214 214 215 215 214 213 209 206 205 201 195 193 193 195 197 198 199 202 198 191 191 192 192 191 192 193 191 190 189 187 186 185 186 186 185 186 187 189 188 185 185 184 182 181 181 181 181 179 178 175 171 166 164 162 160 158 157 158 159 157 154 149 148 147 144 141 136 134
192 193 194 195 194 194 194 196 198 200 201 201 202 204 204 204 206 207 209 212 213 214 215 215 215 215 211 206 205 202 196 194 197 198 197 197 199 203 198 191 192 193 193 193 193 193 191 190 189 188 187 186 187 186 185 186 188 189 188 187 187 185 183 183 183 183 183 181 180 177 173 170 167 165 163 160 159 159 159 158 156 153 149 148 147 146 141 137
192 193 195 195 193 193 194 195 197 199 200 200 201 203 203 203 204 205 208 211 212 211 212 213 214 215 214 209 206 204 199 198 202 200 198 198 201 205 199 191 194 194 194 194 194 194 192 191 191 189 188 188 188 187 187 188 189 190 189 189 189 187 185 185 185 185 185 184 182 179 176 174 172 171 168 166 164 163 162 162 160 158 156 155 153 153 151 146
192 194 195 194 193 193 194 195 196 198 199 199 200 201 201 201 202 204 206 209 211 210 211 214 215 214 214 213 208 205 203 204 205 202 200 200 204 208 199 191 194 195 195 195 195 196 193 192 192 191 190 189 188 188 188 189 190 190 191 191 191 189 188 188 188 188 187 186 184 183 181 179 178 177 176 175 172 169 167 167 167 166 165 164 163 164 164 161
192 194 195 194 193 192 194 194 195 197 198 199 199 200 200 200 200 203 205 207 209 209 211 216 217 216 215 215 211 207 205 205 205 204 203 202 205 209 200 192 194 195 196 195 196 197 193 192 192 191 191 190 189 190 190 191 191 191 192 193 193 192 191 191 191 190 189 187 187 186 185 185 184 185 185 182 179 177 176 175 176 175 175 177 178 180 182 181
192 194 195 194 192 192 193 194 195 196 197 198 198 198 198 198 199 202 204 206 207 207 210 216 218 217 216 215 214 211 207 203 204 206 205 204 206 208 200 192 193 194 195 196 197 197 194 193 192 191 191 191 191 191 191 191 191 192 193 194 195 195 195 194 194 193 191 190 190 190 189 190 191 192 192 190 188 188 186 185 185 186 186 189 192 197 201 203
193 195 195 194 192 192 193 193 194 196 196 196 197 197 196 196 197 201 204 205 207 207 209 214 217 217 217 215 215 215 212 204 203 205 206 205 206 208 200 192 192 193 195 196 197 197 194 193 193 191 190 191 193 192 192 192 191 193 195 195 196 197 197 197 197 196 194 194 194 194 193 194 197 198 198 197 197 196 196 196 196 197 197 199 204 210 215 220
194 195 195 193 191 192 192 192 194 195 195 195 196 195 195 196 196 200 203 204 208 207 207 212 216 217 217 216 216 217 216 210 204 204 207 206 207 207 199 191 191 193 195 196 196 196 194 194 194 193 191 192 193 193 193 192 192 194 196 196 198 199 199 199 200 199 198 197 198 197 197 199 201 201 203 203 203 202 204 205 206 206 206 207 211 216 221 225
194 194 194 193 191 192 192 192 193 194 194 194 195 195 195 195 196 199 202 204 207 208 207 211 214 216 216 217 217 216 216 214 207 204 206 206 208 208 198 190 191 193 194 196 196 196 195 194 194 194 193 193 194 194 194 193 194 196 197 198 199 200 201 201 202 201 200 200 200 199 200 202 203 203 206 207 206 206 206 209 211 211 212 212 214 217 222 225
194 194 194 192 191 193 193 191 192 193 193 193 194 194 195 195 196 198 201 203 206 207 207 210 213 214 215 217 217 215 215 216 211 205 206 207 208 207 198 191 191 192 194 196 197 197 196 195 195 195 194 194 195 195 194 194 196 197 198 200 201 201 202 203 203 203 201 201 201 200 202 203 204 205 207 207 206 205 206 210 212 213 214 216 217 220 223 225
194 194 193 192 192 193 193 192 192 192 193 193 193 193 195 195 196 198 200 202 204 207 208 210 212 212 214 216 217 215 214 217 215 208 206 207 208 206 198 191 191 193 194 195 197 198 197 195 195 195 195 195 196 196 195 196 197 197 199 201 201 201 203 204 205 204 202 202 201 201 202 202 203 206 206 206 206 204 206 209 212 215 217 220 222 225 228 229
195 194 194 192 192 193 193 192 191 192 192 192 192 193 194 195 196 197 199 200 202 205 207 209 210 210 213 215 216 214 213 217 217 211 207 207 207 204 197 191 191 193 195 195 196 198 197 196 196 195 196 196 197 198 197 198 198 198 199 200 199 201 204 205 206 204 203 203 202 202 203 202 204 206 205 207 207 206 209 212 214 218 221 225 228 230 233 235
195 194 193 192 192 193 193 192 191 192 192 192 192 193 194 195 196 196 198 199 200 203 206 208 209 210 212 213 215 214 213 217 216 212 209 206 203 201 195 191 190 193 196 196 196 198 198 197 196 196 197 197 198 199 200 201 200 199 200 199 198 201 203 205 206 206 206 205 204 204 204 203 205 208 208 209 211 211 213 216 219 222 225 229 233 236 238 240
195 194 193 192 192 193 193 192 192 191 192 192 193 193 194 194 195 195 197 199 202 205 208 209 210 213 214 213 215 214 213 216 215 212 209 204 199 196 193 190 190 192 196 197 197 198 198 198 198 196 196 198 199 199 201 202 201 200 201 199 199 202 204 206 206 207 209 208 207 206 206 207 207 210 212 213 215 216 217 220 223 226 230 234 239 242 244 246
195 194 192 191 192 193 193 193 192 192 192 193 194 195 195 195 195 196 197 199 203 208 212 212 212 212 213 214 215 213 213 215 215 212 208 201 193 191 191 190 190 192 195 198 199 199 199 199 199 197 197 198 199 200 201 201 199 199 200 199 199 203 205 205 205 208 209 209 209 208 208 210 210 212 216 215 216 219 220 223 226 230 233 237 243 246 248 250
194 194 192 191 192 193 193 194 193 193 193 193 195 197 198 199 201 202 202 202 204 208 209 209 211 211 210 213 214 213 213 215 214 211 206 198 190 188 191 191 191 192 194 197 199 200 200 200 199 198 199 200 200 201 202 200 199 199 201 200 200 203 205 205 206 208 209 210 210 211 211 213 214 215 218 219 220 224 225 227 231 233 236 240 244 248 251 253
193 193 192 191 192 193 194 194 194 194 193 193 194 196 197 200 202 205 208 208 207 208 206 205 209 211 210 212 213 212 212 212 212 209 203 196 189 188 190 191 192 193 195 197 198 200 201 201 200 200 200 201 201 202 202 200 199 201 203 202 203 205 206 207 209 209 210 212 212 213 214 215 218 218 219 220 223 229 231 232 235 237 240 242 245 249 252 254
193 193 192 191 192 193 194 195 194 194 193 193 194 195 196 197 198 201 205 207 207 206 203 201 205 209 209 210 211 211 210 210 210 208 203 195 189 189 190 191 193 194 196 198 198 200 201 201 201 200 201 202 203 203 202 200 201 203 204 205 206 207 208 210 211 211 212 214 213 214 215 216 219 221 220 219 222 228 234 237 239 241 242 245 246 249 253 255
193 193 193 192 193 193 194 195 194 193 193 193 194 195 195 197 199 200 201 203 205 206 203 200 202 206 208 207 208 208 208 206 205 203 201 194 189 189 191 192 194 195 197 198 200 201 202 202 202 201 201 203 203 203 202 202 203 204 206 207 208 208 210 212 213 213 215 216 215 216 217 217 220 223 222 220 222 226 232 237 241 244 246 248 250 252 255 258
194 194 193 192 193 194 194 194 194 193 192 193 194 195 196 198 200 200 200 201 203 206 206 204 203 204 204 204 204 204 204 202 200 198 196 193 190 190 191 193 194 196 197 199 200 202 203 203 203 203 204 205 204 204 203 204 205 206 207 209 209 209 212 214 214 216 217 217 217 217 220 220 221 224 224 223 224 227 231 236 241 246 249 252 253 255 257 259
195 195 194 193 193 194 195 194 193 193 192 193 194 196 197 198 199 198 199 201 203 204 206 207 206 204 202 202 201 199 198 197 196 195 193 192 192 192 193 194 195 196 198 200 202 203 203 202 203 205 206 207 206 206 205 206 207 208 208 210 210 211 213 215 216 218 219 219 218 219 222 223 222 225 226 226 228 230 233 237 241 246 249 252 254 255 258 260
196 196 194 193 193 194 194 194 194 194 194 193 194 196 199 199 198 197 198 200 202 203 205 207 207 205 202 201 200 196 195 196 195 194 192 191 193 194 195 196 197 197 198 200 203 203 203 203 204 205 207 208 208 208 207 208 210 210 209 211 213 214 215 216 217 219 221 220 220 221 224 225 224 224 227 229 232 234 236 238 241 244 248 251 253 256 258 260
196 196 194 194 193 194 194 194 195 194 195 195 195 197 199 200 198 197 199 201 201 201 203 206 206 203 201 200 199 196 196 197 195 194 192 191 193 195 197 197 197 199 201 202 204 203 203 205 206 207 208 209 209 209 209 212 214 212 211 213 215 216 217 218 219 220 222 223 222 222 224 228 227 225 227 231 234 236 239 242 243 244 246 248 253 256 259 261
196 196 195 194 193 194 193 193 195 196 197 197 197 198 198 198 197 197 200 202 201 200 201 204 204 202 200 199 199 197 196 196 196 195 193 192 193 195 197 197 197 200 203 205 205 205 205 207 208 208 210 210 210 211 212 216 217 215 215 216 217 218 219 220 221 222 223 225 224 223 225 229 230 227 227 231 235 237 240 243 245 245 246 248 252 255 258 260
195 196 195 195 194 194 193 194 196 198 198 198 198 198 197 197 197 197 200 201 201 200 200 202 202 202 200 198 199 197 195 196 196 195 195 194 194 195 197 198 199 200 202 205 206 206 207 208 209 210 211 211 212 212 214 217 218 217 217 218 219 220 221 222 223 224 225 226 225 225 225 230 232 229 228 231 236 239 241 243 244 245 247 249 253 256 258 259
195 196 195 194 193 193 195 196 197 197 198 199 199 198 196 196 196 198 200 201 201 202 202 202 201 201 201 200 200 198 196 195 195 196 197 197 196 197 197 198 200 201 202 204 206 206 208 209 210 211 212 213 214 214 215 217 218 218 218 218 220 221 222 224 225 225 227 226 226 226 227 231 232 231 230 234 239 241 241 243 245 246 248 250 254 257 259 260
195 196 195 194 192 193 196 198 198 197 198 199 200 199 197 196 197 198 200 200 202 203 203 203 203 202 201 200 200 200 198 196 196 197 198 199 200 200 199 199 200 202 202 203 204 205 207 209 210 211 211 212 214 216 217 217 218 218 219 219 220 222 224 225 225 226 228 228 227 228 230 232 233 233 233 235 239 243 243 244 246 246 249 251 254 257 259 260
195 195 195 194 192 194 197 199 199 198 198 198 200 200 199 199 199 198 200 201 202 203 204 205 205 203 202 200 199 200 200 199 198 199 199 200 202 202 203 202 202 204 205 205 206 205 206 208 209 210 211 212 214 216 218 219 220 221 221 221 222 224 225 226 228 229 230 231 231 231 233 234 234 234 235 235 239 245 246 246 247 247 249 252 254 257 259 260
195 195 195 194 192 194 197 198 199 199 199 199 199 199 199 201 200 199 200 202 203 203 203 205 205 203 202 201 200 200 200 201 201 201 201 202 202 203 204 205 205 206 207 208 209 209 209 210 211 212 213 213 215 217 218 220 222 224 225 225 227 228 229 231 232 233 234 234 234 235 235 235 235 236 237 238 240 244 247 247 249 250 252 254 256 257 258 259
195 194 194 193 192 194 197 198 198 199 200 200 200 200 201 201 200 201 203 202 203 204 203 204 205 204 203 202 201 201 202 202 203 203 203 205 205 204 205 206 207 209 209 210 211 212 213 215 215 216 217 217 218 219 219 220 221 223 225 226 228 229 231 232 234 235 235 236 236 236 236 236 237 238 238 239 240 243 246 248 251 253 255 256 258 259 260 261
194 194 193 192 192 194 196 197 198 199 200 201 202 203 202 201 201 203 204 204 205 205 204 203 204 205 205 203 202 202 203 204 205 205 205 206 207 206 206 207 208 210 212 212 212 212 214 216 217 219 221 221 222 223 222 223 224 224 225 225 226 228 230 232 234 235 236 238 238 237 237 237 239 240 239 240 242 244 247 250 252 254 256 257 259 260 262 262
195 194 194 192 192 194 196 197 198 200 201 202 204 204 203 202 203 203 204 205 207 207 207 207 205 205 207 207 206 205 205 205 206 207 208 208 209 208 207 208 208 211 213 215 216 216 216 217 218 220 222 223 224 225 225 226 226 227 228 228 229 230 231 232 235 236 236 238 239 237 238 239 241 242 241 242 244 246 248 250 251 253 255 256 258 260 261 262
195 195 194 193 193 195 196 197 198 200 201 203 204 204 204 204 205 205 205 207 208 208 208 210 210 209 208 208 209 208 208 208 208 209 209 210 211 210 210 210 209 210 212 214 217 218 219 219 220 221 223 225 226 226 227 227 228 229 230 230 231 232 233 234 235 237 237 239 241 240 239 240 242 244 244 244 245 246 246 248 250 252 253 255 256 259 260 262
194 195 195 193 194 195 196 197 198 199 202 203 203 203 204 205 205 205 206 208 210 210 210 211 213 214 213 211 210 211 211 211 211 211 211 212 212 212 211 212 211 211 213 213 215 217 218 220 220 220 222 224 226 227 228 229 230 231 231 231 232 233 234 235 236 238 239 241 243 243 242 241 242 244 245 245 245 245 246 248 250 252 253 255 256 258 260 262
195 195 195 194 195 196 197 198 199 201 203 204 204 204 204 205 206 206 207 209 210 212 213 212 213 215 217 216 214 213 213 214 214 214 214 214 214 213 213 213 213 213 214 215 216 216 217 219 220 220 220 222 224 225 227 229 229 231 232 232 233 235 236 237 237 239 241 242 243 243 243 241 241 243 245 246 246 247 247 249 251 252 254 256 258 259 259 260
196 196 195 195 196 197 197 198 200 203 205 205 205 206 204 204 206 206 208 209 211 213 214 214 214 215 217 218 217 217 216 217 216 216 216 216 216 215 214 216 216 216 216 217 217 217 218 219 221 221 222 223 224 225 226 228 228 230 231 231 232 234 236 238 238 239 240 242 243 243 243 242 240 242 245 247 248 249 250 251 252 255 256 258 259 259 259 258
197 197 197 197 199 199 199 201 202 204 206 207 207 207 206 206 206 206 208 209 212 213 213 214 215 216 217 217 218 219 220 220 219 219 218 218 218 217 216 217 218 218 218 219 219 219 220 221 222 222 223 223 224 224 225 226 227 228 228 228 229 230 232 234 235 235 236 238 240 242 242 241 239 241 244 247 250 252 253 253 254 256 257 257 258 258 258 258
196 197 198 199 201 201 201 202 204 205 206 208 209 209 207 207 208 207 208 209 211 213 214 214 214 215 216 217 218 219 221 222 222 222 221 220 220 219 219 219 219 218 218 218 219 219 220 222 223 223 224 223 223 223 224 224 224 225 226 227 228 230 231 233 234 234 235 236 239 242 243 241 241 243 246 249 251 252 254 255 256 256 256 256 256 257 257 258
196 197 198 200 202 203 204 205 207 208 209 209 210 210 210 209 210 210 210 210 212 213 214 215 215 216 217 219 221 221 221 223 223 222 222 222 222 221 221 221 220 220 219 219 219 219 221 222 222 223 224 223 222 222 222 223 224 225 226 227 228 230 231 233 235 237 238 238 240 244 246 245 245 246 249 250 251 252 253 254 255 255 255 255 255 256 256 256
196 197 198 200 203 204 206 208 210 212 212 211 211 212 211 211 212 212 211 212 213 215 216 216 216 217 218 220 222 223 224 224 224 222 221 221 222 222 223 223 222 220 220 220 219 220 222 223 223 224 224 224 224 224 225 227 229 228 228 228 230 231 233 235 237 238 239 240 241 245 247 248 247 248 249 250 250 250 251 251 252 253 253 253 254 254 254 254
197 198 199 200 203 206 208 210 211 213 214 213 213 213 213 213 213 213 213 213 214 216 217 218 217 218 218 219 221 223 225 226 226 224 223 222 223 224 225 226 225 222 219 219 219 219 221 222 222 224 226 226 227 228 229 231 232 232 232 232 233 234 235 237 238 239 241 242 243 245 247 248 247 248 248 248 248 248 250 251 251 252 252 252 252 252 253 253
199 200 201 203 204 207 209 211 212 214 215 216 217 217 216 215 215 215 215 214 214 215 217 219 219 219 219 220 221 223 225 228 229 228 227 226 226 226 227 229 228 225 221 220 220 220 221 222 222 222 224 226 226 227 227 227 229 230 231 232 234 235 236 237 238 239 241 242 242 243 244 246 246 247 247 248 249 249 250 251 251 251 251 252 253 254 255 255
203 202 204 206 208 211 212 213 214 216 217 217 219 220 220 219 218 218 217 217 216 217 218 219 220 220 221 221 223 224 225 227 229 230 229 229 229 229 230 230 229 227 224 221 221 222 223 223 223 223 224 224 225 226 225 225 226 226 227 227 229 230 233 235 236 236 237 239 241 241 241 244 246 246 247 249 250 251 251 251 252 253 254 255 256 257 257 258
204 205 206 208 211 214 216 215 215 217 218 219 220 221 222 222 222 221 221 219 219 218 219 221 221 222 222 221 222 223 225 227 230 232 232 231 231 231 232 232 231 230 228 225 223 223 224 225 224 225 225 225 226 226 226 226 226 225 226 226 226 227 229 231 232 233 235 239 242 243 243 244 246 246 247 250 252 253 254 253 254 255 256 257 259 260 261 263
202 205 207 210 213 215 216 216 216 217 219 220 221 222 223 223 223 224 223 222 222 221 221 223 224 224 224 223 222 223 225 227 230 233 236 236 236 236 236 236 235 234 234 231 227 225 225 226 226 226 227 226 226 227 227 228 227 227 227 227 227 228 229 231 234 235 238 241 244 244 244 246 247 247 248 250 252 254 257 257 257 258 258 259 260 262 264 265
203 204 207 210 213 215 216 216 217 219 221 221 222 223 224 225 225 225 225 224 224 223 223 224 226 227 226 225 224 225 226 226 227 229 232 234 236 238 239 239 238 238 239 238 234 229 227 227 228 228 230 229 229 230 230 231 231 230 228 228 229 231 233 236 238 239 240 242 243 243 245 248 248 247 248 249 251 254 257 259 260 260 260 261 262 264 265 266
206 206 207 209 212 215 216 217 218 220 222 222 223 224 226 227 227 227 226 225 224 224 224 225 227 228 228 228 227 226 226 227 228 228 229 230 231 232 234 236 237 238 238 239 240 237 233 230 230 231 233 233 232 233 234 235 236 234 231 231 233 235 237 239 240 240 241 242 244 244 247 249 249 247 247 248 249 252 256 259 261 262 262 263 263 265 266 267
Height
5639 5646 5651 5655 5661 5667 5674 5680 5685 5691 5695 5700 5705 5709 5713 5717 5721 5725 5729 5732 5735 5739 5742 5745 5748 5750 5753 5754 5757 5761 5765 5769 5774 5777 5782 5787 5789 5792 5795 5799 5804 5808 5811 5815 5819 5822 5825 5827 5830 5833 5836 5838 5840 5842 5845 5847 5849 5851 5853 5854 5856 5857 5858 5860 5861 5863 5864 5865 5867 5868 5869 5870 5870 5871 5872 5873 5873 5874 5874 5874 5875 5877 5878 5878 5879 5879 5879 5879
5635 5641 5648 5652 5657 5663 5670 5676 5682 5687 5692 5697 5702 5705 5709 5714 5718 5722 5726 5729 5732 5735 5739 5742 5745 5748 5750 5752 5754 5757 5761 5766 5770 5775 5781 5784 5786 5790 5793 5797 5803 5807 5810 5814 5818 5821 5824 5827 5830 5833 5836 5838 5840 5842 5844 5846 5848 5850 5852 5854 5854 5855 5857 5859 5861 5863 5864 5865 5866 5868 5868 5869 5870 5871 5872 5873 5873 5874 5874 5875 5875 5876 5878 5879 5879 5880 5880 5880
5632 5638 5644 5649 5654 5660 5666 5673 5678 5683 5688 5694 5699 5702 5707 5711 5715 5719 5723 5726 5729 5732 5735 5739 5742 5745 5748 5750 5752 5755 5759 5763 5767 5774 5779 5781 5784 5788 5791 5796 5801 5805 5809 5812 5816 5819 5821 5824 5828 5831 5834 5837 5839 5841 5843 5845 5847 5850 5852 5852 5853 5855 5857 5859 5861 5862 5863 5865 5866 5867 5868 5868 5869 5871 5872 5873 5873 5874 5875 5875 5876 5876 5878 5879 5879 5880 5880 5880
5629 5634 5640 5645 5651 5656 5663 5669 5675 5680 5685 5691 5696 5700 5704 5708 5712 5716 5720 5723 5725 5729 5732 5735 5739 5742 5745 5747 5749 5752 5756 5760 5766 5773 5776 5777 5782 5786 5789 5794 5800 5803 5807 5810 5814 5817 5819 5822 5825 5828 5832 5835 5838 5840 5842 5844 5846 5848 5850 5851 5853 5855 5856 5858 5860 5861 5863 5864 5865 5866 5867 5868 5869 5870 5871 5872 5873 5874 5875 5875 5876 5876 5877 5878 5879 5880 5880 5881
5625 5631 5636 5642 5647 5653 5659 5665 5671 5677 5682 5688 5693 5697 5701 5705 5709 5713 5717 5720 5722 5726 5729 5733 5737 5739 5742 5744 5746 5749 5753 5757 5764 5769 5770 5774 5780 5783 5787 5793 5798 5802 5805 5808 5812 5814 5818 5821 5823 5826 5829 5832 5835 5837 5840 5843 5845 5847 5849 5851 5853 5854 5856 5858 5859 5861 5862 5863 5864 5865 5866 5867 5868 5870 5871 5872 5873 5874 5875 5875 5876 5876 5877 5878 5879 5879 5880 5881
5621 5627 5633 5638 5644 5650 5656 5662 5668 5674 5680 5685 5690 5694 5698 5703 5706 5710 5714 5717 5720 5723 5727 5731 5734 5736 5739 5741 5744 5748 5751 5757 5763 5765 5768 5773 5777 5780 5785 5790 5795 5799 5802 5806 5809 5812 5815 5819 5822 5825 5828 5831 5834 5837 5839 5842 5844 5846 5849 5851 5853 5854 5855 5857 5859 5860 5862 5863 5863 5864 5865 5866 5868 5869 5870 5871 5872 5874 5874 5875 5876 5877 5877 5878 5879 5880 5880 5881
5618 5624 5630 5635 5641 5647 5652 5658 5664 5671 5677 5682 5687 5691 5696 5700 5703 5707 5711 5714 5718 5722 5726 5730 5732 5733 5736 5739 5743 5747 5751 5757 5760 5762 5766 5771 5775 5778 5782 5788 5792 5796 5800 5804 5807 5810 5814 5818 5822 5825 5829 5831 5833 5836 5839 5841 5843 5845 5847 5849 5851 5853 5855 5857 5858 5860 5861 5862 5863 5864 5865 5866 5867 5869 5870 5871 5872 5873 5874 5875 5876 5877 5877 5878 5879 5880 5881 5881
5615 5621 5626 5632 5638 5644 5649 5655 5662 5668 5674 5679 5684 5689 5693 5697 5700 5704 5709 5712 5715 5720 5724 5726 5727 5730 5734 5738 5742 5746 5750 5755 5756 5759 5764 5768 5772 5775 5779 5785 5789 5794 5798 5802 5805 5809 5813 5818 5822 5825 5828 5831 5833 5836 5838 5840 5842 5844 5847 5849 5851 5852 5854 5856 5858 5859 5860 5861 5862 5863 5864 5865 5867 5868 5870 5871 5872 5873 5874 5875 5876 5876 5877 5878 5879 5880 5881 5882
5612 5618 5624 5629 5635 5641 5646 5652 5659 5665 5671 5676 5681 5686 5690 5694 5697 5701 5706 5709 5712 5717 5720 5721 5723 5727 5731 5735 5739 5743 5747 5750 5753 5756 5761 5765 5769 5772 5776 5782 5787 5792 5796 5800 5804 5807 5812 5817 5821 5824 5826 5830 5832 5835 5837 5838 5840 5843 5846 5848 5850 5852 5853 5855 5857 5858 5860 5861 5862 5863 5864 5865 5866 5868 5869 5870 5871 5872 5873 5874 5875 5876 5877 5878 5879 5880 5881 5882
5610 5615 5621 5626 5632 5638 5644 5649 5656 5662 5668 5673 5678 5683 5687 5691 5694 5698 5702 5706 5710 5713 5716 5717 5720 5725 5729 5732 5737 5741 5742 5745 5748 5753 5757 5762 5766 5770 5773 5778 5784 5789 5794 5798 5801 5806 5811 5815 5818 5822 5825 5828 5831 5833 5835 5836 5839 5842 5844 5847 5849 5851 5853 5854 5856 5857 5859 5860 5862 5863 5863 5864 5866 5867 5868 5869 5870 5872 5873 5874 5875 5876 5877 5878 5879 5880 5881 5882
5607 5612 5618 5624 5629 5635 5641 5646 5653 5659 5665 5670 5675 5680 5684 5688 5691 5695 5699 5703 5707 5709 5712 5714 5718 5722 5725 5729 5733 5736 5737 5740 5745 5749 5753 5758 5763 5766 5770 5775 5781 5787 5792 5796 5800 5805 5809 5812 5815 5819 5823 5826 5828 5831 5832 5834 5837 5840 5843 5845 5848 5850 5852 5853 5855 5856 5858 5859 5861 5862 5863 5864 5865 5866 5868 5869 5870 5871 5872 5873 5875 5876 5877 5878 5879 5880 5880 5881
5604 5609 5615 5621 5626 5632 5638 5644 5650 5656 5662 5667 5672 5677 5681 5685 5688 5692 5696 5700 5703 5706 5710 5712 5715 5718 5721 5725 5729 5731 5734 5738 5742 5746 5750 5755 5760 5763 5767 5772 5778 5784 5789 5793 5798 5803 5807 5810 5813 5816 5818 5822 5825 5828 5829 5832 5835 5838 5841 5843 5846 5848 5850 5852 5853 5855 5857 5858 5860 5861 5862 5863 5864 5866 5867 5868 5869 5870 5871 5872 5874 5875 5876 5877 5878 5879 5880 5881
5601 5607 5612 5618 5624 5630 5636 5641 5647 5653 5659 5664 5669 5674 5678 5682 5685 5689 5693 5697 5700 5704 5707 5710 5712 5715 5718 5723 5726 5729 5733 5737 5740 5744 5748 5752 5757 5760 5764 5770 5775 5781 5786 5790 5795 5800 5803 5807 5810 5813 5815 5818 5822 5825 5827 5830 5833 5835 5838 5841 5843 5846 5848 5850 5852 5854 5856 5857 5859 5860 5861 5862 5863 5865 5866 5867 5868 5869 5870 5871 5873 5874 5875 5876 5877 5878 5879 5880
5598 5604 5610 5616 5622 5627 5632 5638 5644 5650 5656 5661 5666 5671 5675 5679 5682 5686 5690 5694 5698 5701 5704 5706 5709 5712 5716 5719 5723 5727 5731 5735 5738 5742 5745 5749 5754 5758 5762 5767 5773 5778 5784 5788 5792 5796 5799 5803 5807 5810 5813 5816 5820 5823 5826 5829 5830 5833 5836 5839 5841 5843 5846 5849 5851 5853 5854 5856 5858 5859 5860 5861 5862 5864 5865 5866 5867 5868 5869 5871 5872 5873 5874 5875 5876 5877 5878 5879
5596 5601 5607 5613 5619 5625 5630 5635 5641 5647 5653 5658 5663 5668 5672 5676 5679 5683 5687 5690 5695 5698 5701 5703 5706 5709 5713 5716 5719 5724 5729 5732 5735 5739 5742 5747 5751 5755 5759 5764 5770 5775 5781 5786 5790 5793 5796 5800 5804 5807 5811 5815 5818 5821 5823 5825 5827 5831 5834 5836 5839 5842 5845 5848 5850 5851 5853 5855 5856 5858 5859 5860 5862 5863 5864 5866 5867 5868 5869 5869 5871 5872 5873 5874 5874 5875 5877 5878
5593 5599 5604 5610 5616 5622 5628 5633 5638 5644 5650 5655 5660 5664 5669 5673 5676 5680 5683 5688 5692 5695 5698 5700 5704 5708 5711 5713 5717 5722 5728 5730 5732 5736 5740 5744 5748 5752 5756 5761 5767 5773 5778 5782 5787 5790 5794 5798 5801 5805 5809 5812 5815 5818 5820 5822 5824 5828 5831 5834 5838 5841 5844 5846 5848 5850 5852 5853 5855 5856 5857 5859 5861 5862 5864 5865 5866 5866 5867 5868 5869 5871 5872 5872 5873 5874 5875 5877
5591 5596 5602 5608 5614 5620 5626 5631 5636 5642 5647 5652 5657 5661 5665 5669 5673 5677 5681 5685 5689 5692 5695 5698 5701 5704 5707 5711 5716 5722 5727 5729 5731 5734 5737 5741 5745 5748 5753 5759 5765 5770 5775 5779 5783 5787 5791 5795 5799 5803 5807 5810 5813 5815 5817 5818 5820 5824 5827 5831 5836 5840 5843 5845 5847 5849 5851 5852 5853 5855 5856 5858 5859 5861 5862 5863 5864 5865 5866 5867 5868 5869 5870 5871 5872 5873 5874 5876
5588 5594 5600 5606 5612 5618 5624 5629 5634 5639 5644 5648 5652 5656 5661 5665 5670 5674 5678 5681 5684 5687 5690 5693 5697 5701 5705 5711 5716 5721 5725 5725 5727 5731 5734 5737 5741 5745 5750 5756 5762 5768 5772 5775 5780 5784 5788 5792 5796 5799 5803 5806 5809 5812 5814 5816 5819 5823 5826 5831 5836 5839 5842 5844 5846 5849 5850 5851 5852 5854 5855 5857 5858 5859 5861 5862 5863 5864 5865 5866 5867 5868 5869 5870 5870 5871 5872 5874
5586 5592 5598 5604 5610 5616 5622 5627 5632 5636 5640 5643 5647 5652 5657 5661 5666 5670 5673 5676 5680 5685 5689 5694 5698 5703 5708 5713 5715 5718 5721 5722 5724 5727 5731 5734 5737 5742 5748 5753 5758 5764 5769 5773 5777 5781 5785 5789 5791 5794 5799 5803 5807 5810 5813 5816 5821 5825 5829 5834 5837 5839 5841 5843 5845 5847 5848 5849 5850 5852 5854 5855 5856 5858 5859 5860 5862 5863 5864 5865 5865 5866 5867 5868 5869 5870 5871 5872
5584 5590 5596 5601 5607 5614 5619 5625 5629 5633 5637 5641 5646 5650 5654 5658 5662 5666 5671 5676 5682 5687 5692 5697 5700 5703 5707 5710 5711 5714 5717 5718 5721 5725 5728 5731 5734 5739 5744 5750 5755 5760 5766 5772 5775 5779 5783 5785 5789 5794 5798 5802 5806 5809 5811 5815 5821 5825 5828 5831 5834 5836 5837 5839 5842 5843 5844 5846 5848 5850 5852 5853 5855 5856 5857 5859 5860 5861 5862 5863 5864 5865 5866 5867 5867 5868 5869 5870
5582 5588 5594 5599 5606 5612 5617 5622 5626 5630 5635 5641 5646 5651 5657 5661 5665 5670 5674 5678 5682 5686 5691 5695 5698 5700 5703 5705 5707 5710 5713 5716 5719 5721 5724 5728 5731 5736 5741 5747 5752 5757 5763 5768 5773 5778 5781 5783 5789 5794 5798 5801 5804 5807 5812 5816 5820 5823 5825 5827 5830 5831 5832 5835 5838 5839 5842 5844 5846 5848 5850 5852 5853 5854 5855 5857 5858 5859 5861 5862 5863 5864 5865 5865 5866 5866 5867 5868
5580 5586 5592 5598 5603 5609 5615 5620 5624 5629 5634 5639 5644 5651 5657 5662 5667 5673 5676 5677 5680 5683 5687 5691 5694 5697 5700 5701 5703 5707 5710 5713 5716 5718 5721 5725 5729 5734 5739 5745 5750 5756 5760 5764 5769 5774 5777 5782 5787 5791 5795 5799 5804 5807 5811 5815 5818 5819 5821 5824 5826 5827 5830 5833 5835 5838 5840 5842 5845 5847 5848 5850 5851 5852 5853 5855 5857 5858 5859 5860 5861 5862 5863 5864 5864 5865 5865 5866
5578 5584 5590 5596 5601 5607 5612 5617 5622 5628 5632 5638 5644 5649 5654 5659 5664 5669 5672 5675 5678 5679 5682 5686 5689 5693 5696 5698 5701 5705 5708 5711 5714 5717 5720 5723 5727 5732 5738 5743 5749 5753 5758 5762 5766 5770 5774 5779 5783 5787 5793 5798 5802 5805 5808 5811 5814 5816 5818 5821 5823 5826 5829 5831 5833 5836 5838 5840 5842 5844 5846 5847 5848 5849 5851 5853 5855 5856 5857 5858 5859 5860 5861 5862 5863 5863 5863 5864
5576 5582 5588 5594 5599 5604 5610 5615 5620 5626 5631 5637 5642 5646 5652 5656 5660 5663 5667 5672 5676 5677 5680 5682 5686 5689 5692 5695 5699 5702 5706 5709 5713 5716 5719 5722 5726 5731 5737 5741 5746 5750 5756 5761 5765 5769 5772 5776 5780 5786 5792 5795 5798 5801 5805 5808 5810 5813 5816 5818 5821 5825 5827 5829 5832 5834 5835 5837 5839 5841 5843 5844 5845 5847 5849 5851 5853 5854 5855 5856 5856 5858 5859 5860 5861 5861 5862 5862
5574 5580 5586 5592 5597 5603 5608 5613 5618 5624 5629 5634 5639 5644 5648 5652 5656 5660 5665 5669 5672 5675 5679 5682 5684 5686 5688 5692 5696 5700 5704 5707 5711 5715 5719 5722 5726 5730 5735 5739 5743 5749 5755 5760 5763 5766 5770 5775 5782 5787 5790 5792 5795 5798 5802 5805 5808 5810 5813 5816 5819 5822 5824 5826 5829 5830 5832 5834 5837 5839 5840 5841 5843 5844 5846 5849 5850 5852 5853 5854 5855 5855 5856 5857 5858 5859 5860 5860
5572 5578 5584 5590 5596 5601 5606 5612 5618 5622 5627 5631 5636 5640 5644 5648 5652 5657 5662 5665 5667 5670 5675 5680 5683 5684 5686 5689 5693 5697 5701 5704 5708 5713 5717 5722 5726 5730 5734 5738 5742 5747 5752 5756 5759 5762 5768 5775 5780 5784 5787 5790 5793 5796 5799 5802 5805 5807 5810 5813 5816 5819 5820 5823 5826 5827 5829 5831 5834 5836 5837 5838 5840 5841 5843 5846 5847 5849 5850 5851 5853 5853 5854 5855 5856 5857 5857 5858
5571 5577 5583 5589 5595 5600 5606 5612 5616 5621 5625 5629 5633 5637 5641 5645 5649 5653 5657 5658 5661 5666 5671 5676 5680 5683 5685 5688 5691 5694 5697 5701 5706 5710 5715 5720 5725 5730 5734 5738 5742 5745 5749 5753 5756 5762 5768 5774 5777 5780 5783 5786 5789 5792 5796 5799 5801 5803 5807 5810 5813 5815 5818 5820 5822 5824 5825 5828 5831 5833 5833 5834 5836 5838 5841 5843 5844 5846 5847 5849 5851 5851 5852 5853 5853 5854 5855 5855
5569 5575 5582 5588 5594 5599 5605 5611 5616 5620 5624 5627 5630 5633 5637 5642 5646 5649 5651 5653 5657 5663 5669 5673 5678 5681 5684 5686 5689 5692 5696 5701 5704 5707 5712 5718 5722 5728 5732 5736 5741 5745 5749 5751 5755 5761 5767 5770 5773 5777 5779 5782 5786 5790 5794 5796 5797 5801 5805 5808 5810 5813 5815 5817 5818 5820 5822 5825 5826 5829 5830 5831 5832 5836 5838 5840 5841 5843 5845 5846 5848 5849 5850 5850 5851 5851 5852 5853
5568 5574 5580 5586 5591 5597 5602 5608 5614 5617 5620 5623 5626 5629 5634 5638 5642 5645 5647 5650 5655 5661 5666 5671 5675 5678 5681 5684 5688 5692 5696 5700 5703 5708 5712 5715 5719 5724 5729 5734 5739 5743 5747 5750 5754 5759 5764 5767 5771 5774 5777 5780 5784 5788 5792 5793 5795 5800 5803 5805 5807 5809 5811 5813 5815 5817 5819 5820 5822 5825 5828 5828 5829 5833 5835 5837 5838 5841 5843 5844 5845 5846 5847 5847 5848 5849 5849 5850
5566 5572 5578 5584 5590 5595 5601 5605 5608 5611 5615 5619 5621 5625 5629 5633 5636 5639 5641 5646 5653 5659 5663 5667 5672 5676 5680 5683 5686 5690 5694 5698 5703 5708 5711 5713 5717 5721 5726 5732 5736 5739 5743 5747 5751 5756 5761 5764 5768 5771 5774 5778 5782 5785 5788 5789 5792 5796 5799 5801 5803 5805 5807 5809 5811 5813 5814 5815 5818 5822 5825 5825 5826 5829 5832 5834 5836 5838 5840 5841 5841 5842 5843 5844 5845 5845 5846 5846
5564 5570 5576 5583 5588 5593 5598 5600 5603 5607 5612 5615 5618 5621 5624 5628 5631 5634 5638 5647 5653 5657 5661 5666 5670 5675 5678 5682 5685 5688 5692 5696 5701 5705 5709 5713 5716 5718 5722 5726 5730 5734 5738 5742 5747 5752 5757 5760 5764 5768 5771 5776 5779 5781 5783 5785 5787 5791 5793 5796 5799 5801 5803 5804 5806 5808 5809 5810 5814 5818 5821 5822 5822 5826 5830 5832 5834 5835 5836 5838 5839 5840 5840 5841 5842 5842 5843 5843
5562 5568 5574 5580 5586 5591 5594 5597 5601 5605 5608 5612 5615 5618 5621 5623 5626 5631 5639 5647 5651 5655 5660 5666 5670 5674 5678 5681 5685 5688 5691 5694 5698 5702 5707 5711 5714 5717 5721 5723 5727 5731 5734 5737 5742 5747 5751 5755 5759 5763 5766 5770 5773 5775 5777 5779 5782 5785 5788 5792 5794 5796 5797 5798 5800 5803 5804 5807 5811 5815 5818 5818 5820 5825 5828 5829 5830 5831 5833 5835 5836 5837 5837 5838 5839 5839 5840 5840
5560 5566 5572 5577 5583 5587 5590 5594 5598 5601 5604 5608 5611 5615 5618 5619 5624 5633 5640 5644 5648 5655 5662 5667 5670 5674 5676 5678 5681 5686 5690 5693 5696 5699 5704 5708 5712 5716 5720 5723 5727 5730 5733 5736 5739 5742 5746 5749 5753 5757 5761 5764 5767 5769 5772 5775 5779 5782 5784 5788 5790 5790 5792 5795 5797 5800 5802 5805 5809 5813 5814 5816 5818 5822 5824 5826 5828 5828 5830 5831 5832 5833 5834 5835 5836 5836 5837 5837
5557 5563 5569 5574 5579 5582 5586 5590 5595 5598 5601 5604 5606 5610 5613 5618 5627 5634 5637 5642 5649 5655 5660 5664 5668 5671 5673 5676 5680 5683 5687 5691 5694 5698 5702 5704 5708 5712 5716 5721 5726 5729 5733 5737 5740 5743 5745 5747 5751 5754 5757 5760 5763 5766 5770 5774 5778 5780 5783 5786 5788 5789 5792 5795 5796 5799 5801 5804 5807 5809 5810 5812 5815 5818 5821 5823 5825 5825 5826 5827 5828 5829 5830 5831 5832 5833 5833 5834
5554 5560 5565 5571 5575 5579 5583 5587 5591 5595 5598 5601 5604 5606 5610 5620 5629 5632 5635 5642 5648 5652 5657 5661 5665 5667 5670 5674 5678 5682 5685 5689 5692 5696 5699 5703 5706 5710 5714 5719 5723 5727 5731 5735 5738 5742 5746 5749 5752 5755 5758 5760 5762 5765 5768 5771 5773 5776 5779 5781 5784 5786 5790 5792 5793 5795 5798 5800 5801 5803 5806 5809 5812 5814 5817 5819 5821 5822 5822 5823 5825 5826 5827 5828 5828 5829 5830 5830
5551 5556 5561 5567 5572 5576 5580 5584 5588 5592 5595 5598 5601 5606 5614 5622 5627 5630 5636 5643 5646 5649 5654 5657 5660 5664 5667 5672 5675 5679 5684 5688 5692 5694 5698 5702 5705 5709 5713 5717 5721 5725 5729 5732 5735 5738 5742 5745 5750 5754 5756 5759 5761 5764 5767 5768 5769 5772 5774 5776 5780 5783 5786 5788 5789 5792 5795 5795 5796 5799 5803 5806 5808 5809 5812 5816 5817 5819 5819 5820 5821 5822 5823 5824 5824 5825 5826 5826
5548 5554 5559 5564 5569 5573 5578 5582 5586 5589 5593 5596 5601 5609 5617 5622 5624 5628 5634 5639 5643 5648 5651 5653 5656 5660 5665 5670 5674 5677 5682 5686 5689 5693 5696 5700 5703 5707 5711 5715 5719 5724 5728 5731 5734 5737 5740 5743 5747 5750 5752 5755 5758 5761 5763 5764 5767 5769 5771 5775 5779 5781 5783 5785 5786 5787 5790 5791 5792 5796 5800 5803 5803 5805 5809 5813 5814 5815 5816 5816 5817 5818 5819 5820 5820 5821 5821 5822
5546 5552 5556 5561 5566 5571 5576 5579 5583 5587 5591 5595 5602 5610 5615 5617 5621 5627 5632 5636 5640 5644 5648 5651 5655 5659 5663 5668 5672 5676 5680 5683 5686 5690 5694 5697 5701 5706 5710 5714 5718 5721 5724 5728 5732 5735 5739 5741 5744 5746 5749 5752 5754 5756 5758 5761 5764 5766 5769 5774 5776 5777 5779 5781 5781 5783 5786 5787 5788 5793 5797 5798 5800 5803 5806 5810 5810 5811 5812 5812 5814 5815 5815 5816 5816 5817 5817 5818
5543 5548 5553 5558 5563 5568 5572 5576 5581 5585 5589 5594 5601 5607 5611 5615 5620 5626 5630 5634 5637 5641 5646 5650 5655 5660 5663 5667 5671 5674 5678 5681 5684 5688 5691 5695 5699 5704 5708 5712 5716 5718 5721 5725 5727 5731 5735 5737 5739 5742 5745 5747 5749 5751 5754 5757 5761 5763 5766 5770 5771 5773 5775 5776 5778 5781 5783 5784 5786 5789 5792 5794 5798 5800 5802 5804 5805 5806 5807 5809 5810 5810 5811 5812 5813 5813 5814 5814
5540 5545 5550 5555 5560 5564 5569 5574 5578 5581 5587 5595 5601 5604 5608 5614 5619 5624 5627 5630 5634 5639 5644 5649 5654 5658 5662 5666 5669 5672 5676 5679 5682 5686 5690 5693 5697 5702 5706 5709 5713 5716 5719 5721 5724 5727 5730 5731 5734 5737 5739 5741 5744 5747 5751 5754 5757 5759 5763 5766 5768 5770 5772 5773 5776 5778 5779 5781 5782 5784 5786 5790 5794 5797 5797 5799 5800 5801 5804 5806 5806 5806 5807 5808 5809 5810 5810 5810
5537 5543 5547 5552 5556 5560 5565 5569 5574 5580 5588 5595 5598 5601 5606 5611 5616 5620 5624 5628 5632 5636 5642 5647 5651 5655 5659 5663 5667 5670 5673 5676 5680 5684 5687 5692 5696 5700 5705 5707 5711 5714 5715 5717 5720 5723 5725 5727 5730 5732 5735 5737 5741 5745 5748 5750 5753 5756 5759 5762 5765 5767 5768 5770 5772 5774 5776 5777 5777 5779 5781 5785 5791 5793 5793 5794 5795 5797 5800 5801 5802 5803 5804 5805 5805 5805 5805 5806
5535 5540 5545 5549 5553 5558 5563 5567 5573 5580 5586 5590 5593 5598 5604 5608 5612 5617 5622 5626 5629 5633 5639 5643 5648 5652 5656 5660 5664 5668 5670 5674 5677 5680 5685 5690 5694 5699 5703 5705 5708 5711 5712 5714 5717 5719 5721 5723 5725 5728 5731 5734 5737 5740 5742 5745 5748 5751 5753 5757 5760 5761 5763 5764 5765 5768 5770 5770 5771 5774 5775 5780 5787 5790 5790 5790 5791 5793 5795 5797 5798 5798 5799 5800 5800 5800 5800 5801
5531 5537 5542 5547 5551 5556 5560 5565 5570 5576 5581 5586 5592 5597 5601 5605 5610 5614 5618 5622 5626 5631 5635 5639 5643 5648 5651 5655 5659 5663 5667 5670 5673 5677 5683 5687 5691 5695 5698 5701 5704 5705 5707 5709 5712 5715 5717 5718 5720 5723 5726 5729 5732 5735 5737 5739 5742 5745 5748 5753 5755 5756 5759 5759 5760 5763 5764 5765 5768 5769 5770 5778 5785 5787 5786 5787 5788 5789 5790 5792 5793 5793 5794 5795 5795 5795 5796 5796
5529 5535 5540 5544 5548 5552 5557 5562 5568 5574 5579 5585 5589 5593 5598 5603 5607 5611 5615 5620 5624 5627 5631 5636 5640 5644 5648 5652 5656 5659 5663 5666 5669 5674 5678 5681 5685 5689 5692 5696 5698 5699 5702 5705 5707 5710 5712 5713 5715 5718 5720 5722 5725 5727 5730 5733 5738 5742 5745 5748 5750 5751 5754 5754 5756 5758 5759 5763 5766 5764 5767 5777 5783 5784 5783 5782 5784 5786 5786 5786 5787 5788 5789 5789 5790 5790 5791 5791
5525 5531 5536 5540 5544 5549 5555 5561 5568 5573 5577 5581 5585 5589 5595 5599 5603 5608 5613 5617 5621 5625 5629 5633 5637 5641 5645 5649 5652 5655 5658 5660 5664 5669 5672 5676 5680 5683 5686 5689 5692 5694 5698 5701 5703 5706 5706 5707 5710 5712 5713 5716 5719 5723 5728 5734 5737 5739 5741 5744 5746 5748 5750 5751 5753 5753 5754 5760 5762 5761 5766 5775 5778 5779 5778 5777 5779 5780 5780 5781 5782 5782 5783 5784 5784 5785 5785 5785
5521 5525 5530 5535 5541 5547 5553 5559 5564 5568 5572 5578 5582 5585 5590 5595 5600 5604 5609 5613 5617 5621 5625 5629 5633 5637 5641 5644 5648 5651 5654 5657 5660 5664 5668 5672 5675 5678 5681 5684 5686 5688 5692 5695 5697 5699 5699 5701 5705 5708 5710 5715 5720 5725 5731 5734 5734 5735 5739 5743 5744 5746 5747 5748 5747 5747 5753 5757 5756 5758 5765 5769 5772 5773 5772 5772 5774 5775 5775 5776 5777 5777 5777 5778 5778 5779 5779 5780
5518 5522 5526 5530 5536 5542 5549 5555 5560 5564 5570 5575 5579 5583 5587 5592 5596 5600 5604 5609 5613 5617 5621 5625 5629 5633 5637 5641 5644 5647 5651 5654 5657 5660 5664 5668 5671 5674 5676 5679 5681 5683 5687 5689 5690 5692 5693 5696 5700 5703 5707 5712 5716 5720 5723 5725 5727 5730 5735 5737 5739 5741 5741 5741 5741 5746 5751 5750 5749 5756 5762 5762 5765 5767 5766 5767 5769 5769 5770 5771 5771 5771 5771 5772 5773 5773 5774 5775
5516 5520 5524 5529 5534 5538 5545 5551 5558 5563 5567 5572 5576 5580 5584 5588 5592 5596 5601 5605 5610 5614 5617 5621 5625 5629 5634 5638 5641 5644 5647 5650 5652 5656 5660 5664 5667 5670 5671 5674 5676 5679 5682 5683 5685 5687 5689 5692 5697 5700 5703 5706 5709 5712 5714 5717 5720 5723 5726 5728 5731 5733 5733 5734 5737 5742 5744 5741 5744 5754 5756 5755 5760 5762 5761 5763 5763 5763 5765 5766 5766 5766 5766 5768 5769 5769 5770 5770
5513 5518 5523 5528 5533 5539 5545 5551 5555 5559 5562 5566 5570 5575 5579 5585 5589 5594 5598 5603 5607 5610 5614 5618 5623 5627 5631 5634 5637 5639 5642 5646 5650 5654 5658 5661 5663 5665 5667 5669 5671 5675 5677 5678 5681 5683 5685 5689 5693 5696 5699 5702 5703 5705 5709 5711 5713 5716 5718 5721 5723 5725 5726 5728 5732 5736 5737 5736 5742 5749 5748 5750 5756 5757 5757 5759 5759 5758 5759 5760 5760 5761 5762 5763 5763 5763 5763 5763
5510 5515 5520 5526 5531 5537 5542 5547 5550 5553 5556 5561 5566 5570 5575 5580 5585 5590 5595 5599 5603 5607 5612 5617 5621 5625 5627 5630 5632 5635 5640 5645 5649 5652 5655 5657 5659 5662 5664 5665 5668 5671 5673 5674 5676 5678 5681 5685 5688 5691 5694 5695 5698 5701 5704 5705 5707 5710 5713 5715 5717 5719 5721 5723 5727 5732 5733 5733 5739 5743 5741 5745 5753 5754 5753 5755 5754 5753 5753 5753 5754 5755 5755 5756 5756 5756 5756 5757
5507 5512 5518 5523 5527 5532 5537 5541 5546 5549 5552 5556 5561 5567 5571 5575 5580 5586 5590 5595 5599 5605 5610 5614 5618 5621 5623 5626 5629 5633 5638 5641 5643 5646 5649 5651 5654 5657 5659 5661 5664 5666 5667 5670 5672 5673 5677 5680 5684 5687 5688 5689 5695 5698 5698 5700 5702 5702 5704 5709 5713 5715 5718 5721 5725 5729 5729 5730 5735 5736 5735 5743 5750 5750 5748 5749 5749 5748 5746 5746 5747 5747 5748 5749 5749 5749 5749 5750
5504 5509 5515 5519 5524 5528 5532 5537 5541 5543 5547 5554 5559 5564 5568 5571 5576 5581 5585 5589 5595 5600 5605 5609 5613 5616 5619 5622 5626 5631 5634 5636 5638 5641 5643 5644 5647 5650 5651 5654 5657 5659 5661 5664 5666 5669 5673 5676 5680 5682 5682 5686 5691 5692 5694 5696 5692 5691 5699 5709 5712 5714 5717 5719 5721 5724 5725 5727 5729 5729 5733 5740 5743 5742 5742 5743 5743 5742 5740 5740 5740 5740 5741 5741 5742 5742 5742 5743